Time,TemperatureF,DewpointF,PressureIn,WindDirection,WindDirectionDegrees,WindSpeedMPH,WindSpeedGustMPH,Humidity,HourlyPrecipIn,Conditions,Clouds,dailyrainin,SoftwareType,DateUTC
2013-10-25 00:07:00,28.4,20.9,30.00,NNW,337,0.0,-999.0,73,-99.99,,,0.00,Acu-Link.com,2013-10-25 06:07:00,
2013-10-25 00:23:00,26.1,19.3,30.01,NNW,337,0.0,-999.0,75,-99.99,,,0.00,Acu-Link.com,2013-10-25 06:23:00,
2013-10-25 00:38:00,25.5,19.3,30.01,ENE,67,0.0,-999.0,77,-99.99,,,0.00,Acu-Link.com,2013-10-25 06:38:00,
2013-10-25 00:53:00,24.6,20.2,30.01,North,0,0.0,-999.0,83,-99.99,,,0.00,Acu-Link.com,2013-10-25 06:53:00,
2013-10-25 01:10:00,24.1,19.7,30.01,NNE,22,0.0,-999.0,83,-99.99,,,0.00,Acu-Link.com,2013-10-25 07:10:00,
2013-10-25 01:26:00,24.6,19.9,30.01,NNE,22,1.1,-999.0,82,-99.99,,,0.00,Acu-Link.com,2013-10-25 07:26:00,
2013-10-25 01:41:00,24.8,19.8,30.03,WNW,292,0.0,-999.0,81,-99.99,,,0.00,Acu-Link.com,2013-10-25 07:41:00,
2013-10-25 01:56:00,24.6,19.9,30.02,East,90,0.0,-999.0,82,-99.99,,,0.00,Acu-Link.com,2013-10-25 07:56:00,
2013-10-25 02:12:00,23.5,19.1,30.02,NNE,22,0.0,-999.0,83,-99.99,,,0.00,Acu-Link.com,2013-10-25 08:12:00,
2013-10-25 02:28:00,23.7,19.6,30.02,NW,315,1.7,-999.0,84,-99.99,,,0.00,Acu-Link.com,2013-10-25 08:28:00,
2013-10-25 02:44:00,25.0,20.0,30.03,NNE,22,2.7,-999.0,81,-99.99,,,0.00,Acu-Link.com,2013-10-25 08:44:00,
2013-10-25 03:00:00,24.8,20.1,30.04,NE,45,1.7,-999.0,82,-99.99,,,0.00,Acu-Link.com,2013-10-25 09:00:00,
2013-10-25 03:18:00,23.4,19.6,30.04,NNE,22,0.0,-999.0,85,-99.99,,,0.00,Acu-Link.com,2013-10-25 09:18:00,
2013-10-25 03:35:00,22.8,19.5,30.04,North,0,0.0,-999.0,87,-99.99,,,0.00,Acu-Link.com,2013-10-25 09:35:00,
2013-10-25 03:50:00,23.2,20.4,30.04,South,180,0.0,-999.0,89,-99.99,,,0.00,Acu-Link.com,2013-10-25 09:50:00,
2013-10-25 04:08:00,23.4,20.9,30.04,NNE,22,3.2,-999.0,90,-99.99,,,0.00,Acu-Link.com,2013-10-25 10:08:00,
2013-10-25 04:24:00,22.3,19.8,30.04,North,0,0.0,-999.0,90,-99.99,,,0.00,Acu-Link.com,2013-10-25 10:24:00,
2013-10-25 04:39:00,21.9,19.4,30.04,NNW,337,0.0,-999.0,90,-99.99,,,0.00,Acu-Link.com,2013-10-25 10:39:00,
2013-10-25 04:54:00,21.6,19.4,30.04,NNE,22,0.0,-999.0,91,-99.99,,,0.00,Acu-Link.com,2013-10-25 10:54:00,
2013-10-25 05:09:00,21.0,19.3,30.05,West,270,0.0,-999.0,93,-99.99,,,0.00,Acu-Link.com,2013-10-25 11:09:00,
2013-10-25 05:25:00,20.5,18.6,30.05,SSW,202,0.0,-999.0,92,-99.99,,,0.00,Acu-Link.com,2013-10-25 11:25:00,
2013-10-25 05:40:00,20.3,19.3,30.06,NNE,22,0.0,-999.0,96,-99.99,,,0.00,Acu-Link.com,2013-10-25 11:40:00,
2013-10-25 05:55:00,20.3,19.6,30.05,NNE,22,0.0,-999.0,97,-99.99,,,0.00,Acu-Link.com,2013-10-25 11:55:00,
2013-10-25 06:11:00,20.1,19.4,30.07,NE,45,0.0,-999.0,97,-99.99,,,0.00,Acu-Link.com,2013-10-25 12:11:00,
2013-10-25 06:26:00,19.9,19.4,30.06,ENE,67,0.0,-999.0,98,-99.99,,,0.00,Acu-Link.com,2013-10-25 12:26:00,
2013-10-25 06:41:00,19.4,18.9,30.07,NE,45,0.0,-999.0,98,-99.99,,,0.00,Acu-Link.com,2013-10-25 12:41:00,
2013-10-25 06:56:00,19.9,18.7,30.06,NE,45,0.0,-999.0,95,-99.99,,,0.00,Acu-Link.com,2013-10-25 12:56:00,
2013-10-25 07:12:00,19.6,18.2,30.07,NNE,22,0.0,-999.0,94,-99.99,,,0.00,Acu-Link.com,2013-10-25 13:12:00,
2013-10-25 07:27:00,19.2,18.7,30.06,SW,225,0.0,-999.0,98,-99.99,,,0.00,Acu-Link.com,2013-10-25 13:27:00,
2013-10-25 07:42:00,18.9,18.0,30.07,WSW,247,0.0,-999.0,96,-99.99,,,0.00,Acu-Link.com,2013-10-25 13:42:00,
2013-10-25 07:57:00,19.6,19.1,30.07,SW,225,0.0,-999.0,98,-99.99,,,0.00,Acu-Link.com,2013-10-25 13:57:00,
2013-10-25 08:13:00,23.2,22.7,30.07,ESE,112,2.2,-999.0,98,-99.99,,,0.00,Acu-Link.com,2013-10-25 14:13:00,
2013-10-25 08:28:00,25.0,21.7,30.08,NNE,22,1.7,-999.0,87,-99.99,,,0.00,Acu-Link.com,2013-10-25 14:28:00,
2013-10-25 08:43:00,27.0,23.9,30.08,SE,135,2.2,-999.0,88,-99.99,,,0.00,Acu-Link.com,2013-10-25 14:43:00,
2013-10-25 08:58:00,29.3,24.2,30.09,NNE,22,1.1,-999.0,81,-99.99,,,0.00,Acu-Link.com,2013-10-25 14:58:00,
2013-10-25 09:13:00,32.4,25.4,30.09,West,270,0.0,-999.0,75,-99.99,,,0.00,Acu-Link.com,2013-10-25 15:13:00,
2013-10-25 09:29:00,32.9,24.9,30.08,WSW,247,0.0,-999.0,72,-99.99,,,0.00,Acu-Link.com,2013-10-25 15:29:00,
2013-10-25 09:44:00,35.1,27.0,30.08,SSW,202,1.1,-999.0,72,-99.99,,,0.00,Acu-Link.com,2013-10-25 15:44:00,
2013-10-25 09:59:00,35.4,26.9,30.09,SE,135,0.0,-999.0,71,-99.99,,,0.00,Acu-Link.com,2013-10-25 15:59:00,
2013-10-25 10:29:00,38.1,28.1,30.07,SW,225,2.7,-999.0,67,-99.99,,,0.00,Acu-Link.com,2013-10-25 16:29:00,
2013-10-25 10:44:00,39.7,29.7,30.08,SW,225,3.7,-999.0,67,-99.99,,,0.00,Acu-Link.com,2013-10-25 16:44:00,
2013-10-25 10:59:00,40.6,29.0,30.07,WSW,247,2.7,-999.0,63,-99.99,,,0.00,Acu-Link.com,2013-10-25 16:59:00,
2013-10-25 11:15:00,41.4,29.0,30.07,SSW,202,4.7,-999.0,61,-99.99,,,0.00,Acu-Link.com,2013-10-25 17:15:00,
2013-10-25 11:30:00,42.1,28.8,30.06,SSW,202,3.2,-999.0,59,-99.99,,,0.00,Acu-Link.com,2013-10-25 17:30:00,
2013-10-25 11:45:00,43.3,29.1,30.06,South,180,2.7,-999.0,57,-99.99,,,0.00,Acu-Link.com,2013-10-25 17:45:00,
2013-10-25 12:00:00,43.9,30.1,30.05,SSW,202,3.2,-999.0,58,-99.99,,,0.00,Acu-Link.com,2013-10-25 18:00:00,
2013-10-25 12:15:00,44.6,30.3,30.04,SSW,202,3.7,-999.0,57,-99.99,,,0.00,Acu-Link.com,2013-10-25 18:15:00,
2013-10-25 12:30:00,44.2,30.4,30.04,West,270,3.7,-999.0,58,-99.99,,,0.00,Acu-Link.com,2013-10-25 18:30:00,
2013-10-25 12:45:00,45.0,32.0,30.03,SW,225,3.7,-999.0,60,-99.99,,,0.00,Acu-Link.com,2013-10-25 18:45:00,
2013-10-25 13:01:00,45.7,33.0,30.04,South,180,2.7,-999.0,61,-99.99,,,0.00,Acu-Link.com,2013-10-25 19:01:00,
2013-10-25 13:16:00,46.4,36.4,30.01,South,180,6.8,-999.0,68,-99.99,,,0.00,Acu-Link.com,2013-10-25 19:16:00,
2013-10-25 13:31:00,47.5,38.2,30.01,South,180,6.8,-999.0,70,-99.99,,,0.00,Acu-Link.com,2013-10-25 19:31:00,
2013-10-25 13:46:00,47.1,38.9,30.00,SSW,202,5.8,-999.0,73,-99.99,,,0.00,Acu-Link.com,2013-10-25 19:46:00,
2013-10-25 14:01:00,47.3,39.4,30.00,SSW,202,5.8,-999.0,74,-99.99,,,0.00,Acu-Link.com,2013-10-25 20:01:00,
2013-10-25 14:17:00,47.5,40.0,29.99,SSW,202,6.3,-999.0,75,-99.99,,,0.00,Acu-Link.com,2013-10-25 20:17:00,
2013-10-25 14:32:00,47.3,40.5,29.98,South,180,5.8,-999.0,77,-99.99,,,0.00,Acu-Link.com,2013-10-25 20:32:00,
2013-10-25 14:47:00,48.4,40.5,29.98,West,270,5.3,-999.0,74,-99.99,,,0.00,Acu-Link.com,2013-10-25 20:47:00,
2013-10-25 15:02:00,49.6,40.6,29.97,West,270,8.9,-999.0,71,-99.99,,,0.00,Acu-Link.com,2013-10-25 21:02:00,
2013-10-25 15:17:00,50.0,41.3,29.98,WNW,292,4.2,-999.0,72,-99.99,,,0.00,Acu-Link.com,2013-10-25 21:17:00,
2013-10-25 15:32:00,50.5,41.1,29.96,SSW,202,4.2,-999.0,70,-99.99,,,0.00,Acu-Link.com,2013-10-25 21:32:00,
2013-10-25 15:48:00,49.5,40.1,29.96,WSW,247,5.3,-999.0,70,-99.99,,,0.00,Acu-Link.com,2013-10-25 21:48:00,
2013-10-25 16:03:00,49.5,40.1,29.97,NW,315,4.2,-999.0,70,-99.99,,,0.00,Acu-Link.com,2013-10-25 22:03:00,
2013-10-25 16:18:00,49.6,40.2,29.97,SSW,202,3.7,-999.0,70,-99.99,,,0.00,Acu-Link.com,2013-10-25 22:18:00,
2013-10-25 16:33:00,49.3,40.3,29.97,South,180,4.2,-999.0,71,-99.99,,,0.00,Acu-Link.com,2013-10-25 22:33:00,
2013-10-25 16:48:00,46.9,37.6,29.97,WSW,247,6.8,-999.0,70,-99.99,,,0.00,Acu-Link.com,2013-10-25 22:48:00,
2013-10-25 17:04:00,49.3,40.3,29.97,SW,225,3.2,-999.0,71,-99.99,,,0.00,Acu-Link.com,2013-10-25 23:04:00,
2013-10-25 17:19:00,48.2,40.0,29.97,SSW,202,3.2,-999.0,73,-99.99,,,0.00,Acu-Link.com,2013-10-25 23:19:00,
2013-10-25 17:35:00,47.3,40.8,29.96,WSW,247,3.2,-999.0,78,-99.99,,,0.00,Acu-Link.com,2013-10-25 23:35:00,
2013-10-25 17:50:00,46.4,40.2,29.96,SSE,157,3.7,-999.0,79,-99.99,,,0.00,Acu-Link.com,2013-10-25 23:50:00,
2013-10-25 18:05:00,46.0,40.2,29.97,South,180,3.2,-999.0,80,-99.99,,,0.00,Acu-Link.com,2013-10-26 00:05:00,
2013-10-25 18:21:00,45.3,39.8,29.97,West,270,3.7,-999.0,81,-99.99,,,0.00,Acu-Link.com,2013-10-26 00:21:00,
2013-10-25 18:36:00,44.6,39.8,29.99,West,270,3.2,-999.0,83,-99.99,,,0.00,Acu-Link.com,2013-10-26 00:36:00,
2013-10-25 18:52:00,44.4,40.5,29.99,SSW,202,6.3,-999.0,86,-99.99,,,0.00,Acu-Link.com,2013-10-26 00:52:00,
2013-10-25 19:07:00,44.2,40.9,29.99,SSW,202,4.7,-999.0,88,-99.99,,,0.00,Acu-Link.com,2013-10-26 01:07:00,
2013-10-25 19:22:00,43.7,42.4,29.99,SSW,202,4.7,-999.0,95,-99.99,,,0.00,Acu-Link.com,2013-10-26 01:22:00,
2013-10-25 19:37:00,43.2,42.7,29.99,SSW,202,1.1,-999.0,98,-99.99,,,0.00,Acu-Link.com,2013-10-26 01:37:00,
2013-10-25 19:53:00,42.1,40.8,29.99,ESE,112,0.0,-999.0,95,-99.99,,,0.00,Acu-Link.com,2013-10-26 01:53:00,
2013-10-25 20:08:00,40.6,40.1,30.00,NE,45,0.0,-999.0,98,-99.99,,,0.00,Acu-Link.com,2013-10-26 02:08:00,
2013-10-25 20:25:00,39.0,38.5,30.00,SW,225,0.0,-999.0,98,-99.99,,,0.00,Acu-Link.com,2013-10-26 02:25:00,
2013-10-25 20:40:00,37.9,37.4,30.01,West,270,0.0,-999.0,98,-99.99,,,0.00,Acu-Link.com,2013-10-26 02:40:00,
2013-10-25 20:56:00,36.7,36.2,30.01,NE,45,0.0,-999.0,98,-99.99,,,0.00,Acu-Link.com,2013-10-26 02:56:00,
2013-10-25 21:11:00,35.6,35.1,30.02,East,90,0.0,-999.0,98,-99.99,,,0.00,Acu-Link.com,2013-10-26 03:11:00,
2013-10-25 21:26:00,34.2,33.7,30.02,ESE,112,0.0,-999.0,98,-99.99,,,0.00,Acu-Link.com,2013-10-26 03:26:00,
2013-10-25 21:41:00,34.2,33.7,30.02,NW,315,0.0,-999.0,98,-99.99,,,0.00,Acu-Link.com,2013-10-26 03:41:00,
2013-10-25 21:57:00,33.6,33.1,30.04,NE,45,0.0,-999.0,98,-99.99,,,0.00,Acu-Link.com,2013-10-26 03:57:00,
2013-10-25 22:12:00,33.4,32.9,30.03,South,180,0.0,-999.0,98,-99.99,,,0.00,Acu-Link.com,2013-10-26 04:12:00,
2013-10-25 22:27:00,32.9,32.4,30.03,NNW,337,0.0,-999.0,98,-99.99,,,0.00,Acu-Link.com,2013-10-26 04:27:00,
2013-10-25 22:42:00,32.9,32.4,30.04,ESE,112,0.0,-999.0,98,-99.99,,,0.00,Acu-Link.com,2013-10-26 04:42:00,
2013-10-25 22:58:00,31.8,31.3,30.05,NW,315,0.0,-999.0,98,-99.99,,,0.00,Acu-Link.com,2013-10-26 04:58:00,
2013-10-25 23:13:00,31.1,30.6,30.04,WNW,292,0.0,-999.0,98,-99.99,,,0.00,Acu-Link.com,2013-10-26 05:13:00,
2013-10-25 23:28:00,30.4,29.9,30.04,South,180,0.0,-999.0,98,-99.99,,,0.00,Acu-Link.com,2013-10-26 05:28:00,
2013-10-25 23:43:00,29.5,29.0,30.04,ESE,112,0.0,-999.0,98,-99.99,,,0.00,Acu-Link.com,2013-10-26 05:43:00,
2013-10-25 23:59:00,28.9,28.4,30.04,South,180,0.0,-999.0,98,-99.99,,,0.00,Acu-Link.com,2013-10-26 05:59:00,